User: anonymous
Location: Unspecified
(0.0000°N, 0.0000°E)
Time: 02:38:16
(UTC+02:00)
Language:

Cosmos 1703 - Orbit

View from above orbital plane
View from above orbital plane
View from above satellite
View from above satellite

Ground track
Ground track

The orbit data is extracted from the following two-line orbital elements,

1 16262U 85108A   14109.09282270  .00005947  00000-0  41345-3 0  4118
2 16262 082.4922 300.2833 0011540 308.9259 051.0939 15.05295708544756
Epoch (UTC): 19 April 2014 02:13:39
Eccentricity: 0.0011540
inclination: 82.4922°
perigee height: 542 km
apogee height: 558 km
right ascension of ascending node: 300.2833°
argument of perigee: 308.9259°
revolutions per day: 15.05295708
mean anomaly at epoch: 51.0939°
orbit number at epoch: 54475

The dashed part of the orbit path shows where the satellite is in the earth's shadow,  

DLR